Location: Newark
(48.4472°N, 1.4892°E)
Time: 18:32:05
(UTC+00:00)

Transit 4A - Pass Details

Date: 27 November 2019
Orbit: 870 x 975 km, 66.8° (Epoch: 12 December)

Event Time Altitude Azimuth Distance (km) Brightness Sun altitude
Exits shadow 03:07:35 24° 70° (ENE) 1,727 9.7 -40.8°
Drops below altitude 10° 03:10:41 10° 97° (E) 2,526 10.8 -40.3°
Sets 03:13:28 0° 108° (ESE) 3,455 11.5 -39.9°
